This is the latest recevied weather packets stored in our database for station/object PY2KO-3. If no packets are shown the sender has not sent any weather packets the latest 10 day(s).
| Time | Temp. | Humidity | Pressure | Rain* | Wind** | Luminosity | Snow |
|---|---|---|---|---|---|---|---|
| 1777637957 | 22.78° C | 73% | 1023.5 hPa | - | - | - | - |
| 1777637070 | 22.22° C | 75% | 1023.4 hPa | - | - | - | - |
| 1777636234 | 22.22° C | 77% | 1023.4 hPa | - | - | - | - |
| 1777633451 | 20.56° C | 85% | 1023.6 hPa | - | - | - | - |
| 1777632551 | 20° C | 86% | 1023.4 hPa | - | - | - | - |
| 1777631651 | 20° C | 88% | 1023.3 hPa | - | - | - | - |
| 1777630751 | 19.44° C | 88% | 1023.3 hPa | - | - | - | - |
| 1777629854 | 19.44° C | 88% | 1023.1 hPa | - | - | - | - |
| 1777628951 | 19.44° C | 88% | 1023 hPa | - | - | - | - |
| 1777628051 | 19.44° C | 89% | 1022.7 hPa | - | - | - | - |
| 1777627151 | 19.44° C | 89% | 1022.6 hPa | - | - | - | - |
| 1777626251 | 19.44° C | 88% | 1022.5 hPa | - | - | - | - |
| 1777625351 | 19.44° C | 88% | 1022.2 hPa | - | - | - | - |
| 1777624451 | 18.89° C | 88% | 1022.1 hPa | - | - | - | - |
| 1777623555 | 18.89° C | 88% | 1021.8 hPa | - | - | - | - |
| 1777622651 | 18.89° C | 88% | 1021.8 hPa | - | - | - | - |
| 1777621751 | 18.89° C | 88% | 1021.6 hPa | - | - | - | - |
| 1777620851 | 18.89° C | 88% | 1021.6 hPa | - | - | - | - |
| 1777619951 | 19.44° C | 88% | 1021.5 hPa | - | - | - | - |
| 1777619051 | 19.44° C | 87% | 1021.5 hPa | - | - | - | - |
| 1777618151 | 19.44° C | 87% | 1021.5 hPa | - | - | - | - |
| 1777617251 | 19.44° C | 87% | 1021.5 hPa | - | - | - | - |
| 1777616351 | 19.44° C | 87% | 1021.7 hPa | - | - | - | - |
| 1777615451 | 19.44° C | 88% | 1021.8 hPa | - | - | - | - |
| 1777614551 | 19.44° C | 88% | 1021.9 hPa | - | - | - | - |
* Rain since midnight (hover to see other rain measurements)
** Current wind speed in m/s (hover to see current wind gust speed)